Powrót do katalogu

THORAD AGENA D DEB

AktywnyLEO
NORAD 4654·DEBRIS·🇺🇸 United States

Wystrzelony Apr 8, 1970 z Vandenberg Space Force Base

Loading…

Następne Przeloty (najbliższe 24 godziny)

TLE

ŚwieżeSource: Space-Track

Epoka: Sep 14, 2026, 06:23 UTC

1 04654U 70025AN  26257.26614453  .00001528  00000-0  78362-3 0  9991
2 04654 100.0376  81.5749 0026974 184.6487 175.4437 14.17064693852555

Śledź THORAD AGENA D DEB w czasie rzeczywistym z AllMySat

Download on the App Store